STARLINK-35948, 66633

Orbit data source: Space-Track

STARLINK-35948, 66633 is a payload satellite owned by SpaceX/Seattle (US) in LEO that was launched on Sun, 23 Nov 2025 UTC via an FALCON 9 launch vehicle from the Air Force Western Test Range (AFWTR). Payload-class satellites include a variety of spacecraft equipped with specific instruments for various scientific and technological missions. These include communications satellites like Starlink; space stations such as the ISS; scientific satellites like the Hubble; Earth observation satellites from companies like Planet Labs, Umbra, and HawkEye 360; GPS; miniature CubeSats for education and research; and military/defense satellites.

Loading next visibility...
Identifier
66633, 2025-271S
Orbit
LEO
Country
Flag of USUS
Related business
Manufacturer
SpaceX/Seattle
Mission
Operational Commercial Communications
Bus & Motor
STARLINK V2MO, Unknown motor
Mass
575 kg wet, ~530 kg dry
Launch date (UTC)
2025-11-23 (1 month ago)
Launch vehicle
FALCON 9
Launch site
Air Force Western Test Range (AFWTR)
Object type
Payload
Rocket body
Debris
Shape & HBR
Box + 2 Pan, 17.7 m
Radar Cross Section
36.964 m²

Expand to show TLE details & history
Last TLE update: 21 hours ago

TLE from 21 hours ago
0 STARLINK-35948
1 66633U 25271S   25354.75455016  .00047642  00000-0  11916-2 0  9996
2 66633  53.1597 149.2576 0001072  61.7856 298.3257 15.39670042  5449
Epoch: 2025-12-20T18:06Z
TLE epoch observation values (Epoch: 2025-12-20T18:06:33.133Z)
Latitude
-0.00004°
Longitude
148.0427°
Altitude
447.641 km
Speed
7.645 km/s
True Right ascension
09h 57m 01s
True Declination
0° 00' 00"
Sunlit
Object was in full shadow at epoch
Visualization orbit readout
Latitude
Unknown
Longitude
Unknown
Altitude
Unknown
Speed
Unknown
Apparent Right ascension
Unknown
Apparent Declination
Unknown
Sunlit
N/A
Visualization observer readout
Local Sidereal Time
13:59:00
Azimuth
Unknown
Elevation
Unknown
Doppler factor
Unknown
Orbital elements
Apogee altitude
448.073 km
Perigee altitude
446.61 km
Semi-major axis
6,825.479 km
Eccentricity
0.00011
Inclination
53.1597°
RAAN
149.2576°
Arg. of periapsis
61.7856°
True anomaly
298.31489°
Mean anomaly
298.3257°
Eccentric anomaly
298.32029°
Mean motion
3.84896 °/min
Orbital period
93.53 mins
BSTAR
0.0011916
Loading maneuver chart data...
Computing Atmospheric mass density...
Loading historical data...
Loading historical data...
Loading historical data...
Loading historical data...
Loading historical data...
Loading historical data...
Loading historical data...

Documentation

Showing up to 5 results
|